Probability
0 0 0 0 0 0 0 0 0 0 0 0 2 4 9 14 19 20 21 24 27 33 33 29 29 31 29 28 30 30 30 32 36 38 39 40 41 43 45 50 56 59 58 56
0 0 0 0 0 0 0 0 0 0 0 0 2 5 11 18 24 28 30 31 34 39 42 40 37 39 41 42 42 42 44 48 53 54 55 56 56 54 56 61 63 64 63 63
0 0 0 0 0 0 0 0 0 0 0 0 1 4 11 18 26 34 40 43 45 51 54 52 50 52 55 56 55 56 60 65 72 74 74 74 73 71 72 73 70 65 64 65
0 0 0 0 0 0 0 0 0 0 0 0 0 2 6 14 23 34 43 47 51 56 57 56 59 62 63 62 61 62 64 68 73 77 78 79 79 79 77 74 66 55 50 48
0 0 0 0 0 0 0 0 0 0 0 0 0 1 5 13 22 31 39 43 46 50 51 55 62 65 64 63 62 62 63 65 66 68 72 76 78 77 73 66 55 41 30 25
0 0 0 0 0 0 0 0 0 0 0 0 0 3 9 16 22 27 31 33 35 37 40 46 54 58 59 60 60 59 61 63 62 62 67 73 75 74 68 57 43 29 18 14
0 0 0 0 0 0 0 0 0 0 0 0 0 6 14 18 17 19 20 19 20 22 24 30 36 40 43 48 52 55 56 57 58 58 60 63 67 66 58 45 30 20 13 9
0 0 0 0 0 0 0 0 0 0 0 0 2 9 15 11 8 9 9 8 9 10 12 15 19 21 25 32 38 42 43 43 45 46 44 44 45 45 39 28 19 14 9 6
0 0 0 0 0 0 0 0 0 0 0 0 3 11 11 5 2 3 4 5 6 6 6 6 7 9 12 15 19 22 24 25 26 26 23 20 19 18 15 11 8 7 5 4
0 0 0 0 0 0 0 0 0 0 0 0 2 6 6 3 2 3 3 4 4 4 2 2 2 3 3 4 6 7 8 9 9 9 7 5 3 3 2 2 2 2 1 1
0 0 0 0 0 0 0 0 0 0 0 0 0 1 3 4 5 5 4 2 2 1 0 0 0 0 0 0 1 1 1 1 1 1 1 0 0 0 0 0 0 0 0 0
0 0 0 0 0 0 0 0 0 0 0 0 0 1 5 10 11 8 4 1 0 0 0 0 0 0 0 0 0 0 0 0 0 0 0 0 0 0 0 0 0 0 0 0
0 0 0 0 0 0 0 0 0 0 0 0 1 3 9 15 15 8 3 1 0 0 0 0 0 0 0 0 0 0 0 0 0 0 0 0 0 0 0 0 0 0 0 0
0 0 0 0 0 0 0 0 0 0 0 0 2 6 12 15 12 5 1 0 0 0 0 0 0 0 0 0 0 0 0 0 0 0 0 0 0 0 0 0 0 0 0 0
0 0 0 0 0 0 0 0 0 0 1 1 4 8 12 12 9 4 1 0 0 0 0 0 0 0 0 0 0 0 0 0 0 0 0 0 0 0 0 0 0 0 0 0
0 0 0 0 0 0 0 0 0 0 1 2 4 6 9 10 7 3 1 0 0 0 0 0 0 0 0 0 0 0 0 0 0 0 0 0 0 0 0 0 0 0 0 0
0 0 0 0 0 0 0 0 0 0 1 1 2 3 4 7 6 3 1 0 0 0 0 0 0 0 0 0 0 0 0 0 0 0 0 0 0 0 0 0 0 0 0 0
0 0 0 0 0 0 0 0 0 0 0 0 1 1 1 2 3 1 0 0 0 0 0 0 0 0 0 0 0 0 0 0 0 0 0 0 0 0 0 0 0 0 0 0
0 0 0 0 0 0 0 0 0 0 0 0 0 0 0 0 0 0 0 0 0 0 0 0 0 0 0 0 0 0 0 0 0 0 0 0 0 0 0 0 0 0 0 0
0 0 0 0 0 0 0 0 0 0 0 0 0 0 0 0 0 0 0 0 0 0 0 0 0 0 0 0 0 0 0 0 0 0 0 0 0 0 0 0 0 0 0 0
0 0 0 0 0 0 0 0 0 0 0 0 0 0 0 0 0 0 0 0 0 0 0 0 0 0 0 0 0 0 0 0 0 0 0 0 0 0 0 0 0 0 0 0
0 0 0 0 0 0 0 0 0 0 0 0 0 0 0 0 0 0 0 0 0 0 0 0 0 0 0 0 0 0 0 0 0 0 0 0 0 0 0 0 0 0 0 0
0 0 0 0 0 0 0 0 0 0 0 0 0 0 0 0 0 0 0 0 0 0 0 0 0 0 0 0 0 0 0 0 0 0 0 0 0 0 0 0 0 0 0 0
0 0 0 0 0 0 0 0 0 0 0 0 0 0 0 0 0 0 0 0 0 0 0 0 0 0 0 0 0 0 0 0 0 0 0 0 0 0 0 0 0 0 0 0
0 0 0 0 0 0 0 0 0 0 0 0 0 0 0 0 0 0 0 0 0 0 0 0 0 0 0 0 0 0 0 0 0 0 0 0 0 0 0 0 0 0 0 0
0 0 0 0 0 0 0 0 0 0 0 0 0 0 0 0 0 0 0 0 0 0 0 0 0 0 0 0 0 0 0 0 0 0 0 0 0 0 0 0 0 0 0 0
Wind_Speed
7 9 10 7 9 6 3 5 5 3 2 4 5 3 4 4 2 3 4 5 6 6 7 9 10 11 12 12 13 14 14 14 11 10 10 10 9 8 8 7 8 8 8 8
9 11 7 5 6 8 8 9 7 5 4 3 4 5 6 7 8 7 5 4 4 5 5 5 7 9 10 11 11 12 14 14 14 11 9 8 8 7 7 6 6 7 7 7
12 3 2 7 9 10 10 10 7 4 3 6 7 6 6 7 9 9 9 8 7 6 5 4 4 4 6 7 9 9 10 12 13 12 8 7 6 5 6 7 6 5 5 5
9 6 7 10 10 10 10 8 8 7 9 9 10 7 8 7 8 10 10 10 10 9 7 5 3 2 2 3 4 6 7 9 10 10 10 11 9 8 7 5 4 4 3 3
7 6 9 11 10 11 8 4 7 8 8 7 9 7 9 7 7 9 10 10 11 10 9 8 7 5 3 1 1 2 4 6 7 9 10 10 9 6 4 5 6 5 4 4
9 5 7 7 7 9 7 6 7 8 9 10 7 7 7 5 7 8 9 10 10 10 10 10 10 9 8 6 4 3 3 2 2 5 6 8 7 6 7 7 6 5 4 4
8 10 9 7 8 9 10 10 9 11 10 7 6 4 7 8 9 10 10 10 10 10 11 11 11 11 10 10 8 6 5 4 3 3 2 2 3 5 6 6 6 6 5 4
5 6 7 8 10 8 12 13 9 7 9 8 8 5 9 10 10 11 11 11 11 11 11 11 12 12 12 12 11 9 9 8 7 6 5 5 5 4 4 6 6 6 5 6
4 1 4 4 6 7 9 11 7 6 4 5 8 9 8 9 11 11 11 11 11 10 11 12 12 12 12 12 12 11 11 11 11 11 11 10 9 9 9 9 9 8 8 8
6 4 3 4 6 6 7 5 6 8 7 7 9 9 9 12 11 10 10 11 10 10 11 11 11 12 12 12 13 14 14 14 14 13 12 11 13 13 12 12 13 13 12 12
5 5 3 6 5 5 7 7 7 7 6 5 7 6 5 10 11 11 11 11 10 10 10 10 11 11 13 13 14 14 15 15 15 14 14 15 14 14 14 14 14 14 13 13
2 5 2 3 2 2 3 3 6 7 6 7 2 8 6 10 12 12 12 11 11 11 11 11 12 13 14 15 15 15 15 15 15 15 15 15 15 15 15 15 14 14 14 13
3 5 4 7 6 5 2 0 3 5 5 6 5 9 9 12 13 12 12 11 11 11 11 12 12 13 13 14 14 14 15 15 15 15 15 15 15 15 14 14 13 13 13 13
5 3 4 2 4 2 2 2 1 6 7 6 1 11 11 11 12 11 11 12 11 12 11 12 12 12 13 13 13 13 14 13 14 14 15 15 14 13 13 12 12 12 11 12
4 1 5 7 6 5 6 6 4 4 6 5 5 9 10 10 11 11 11 12 12 12 12 12 11 11 12 12 12 12 12 12 12 14 14 13 12 12 12 11 11 10 10 10
1 2 4 6 5 7 9 8 6 7 6 5 9 8 9 11 11 11 11 12 12 12 12 12 11 11 11 11 10 11 11 11 12 13 12 12 11 12 11 10 9 9 9 8
1 3 3 4 3 4 5 7 6 6 6 3 3 7 10 10 10 10 10 11 12 12 11 11 11 10 10 10 10 10 10 10 11 11 11 11 11 10 9 9 8 8 8 8
0 2 2 2 5 2 6 4 4 6 7 7 10 11 10 10 10 9 9 11 12 12 11 10 10 10 9 9 9 9 9 10 10 10 10 9 9 9 8 8 8 7 6 6
3 3 2 2 2 5 6 2 2 1 5 7 11 12 12 14 13 10 9 11 11 11 10 9 9 9 9 9 9 10 10 9 9 9 9 8 8 8 8 7 7 5 5 4
3 2 3 2 2 1 5 4 2 2 5 7 10 11 11 9 6 6 9 11 11 11 9 9 9 9 9 8 8 9 9 9 9 8 8 7 7 7 7 6 5 5 3 3
1 1 1 1 1 6 6 2 3 3 5 9 9 10 9 5 8 12 12 11 10 10 10 9 9 8 8 8 8 9 9 8 8 7 7 7 7 6 6 5 4 3 3 3
3 1 1 2 0 5 5 1 3 6 8 10 10 10 11 14 15 14 12 11 11 10 10 9 8 8 7 7 8 8 8 7 7 6 6 6 5 4 4 3 2 2 3 2
2 5 4 5 7 7 5 6 7 8 10 10 11 13 15 15 14 13 12 11 10 10 9 8 9 9 7 6 7 8 7 6 6 5 5 4 3 2 1 2 2 2 2 4
5 1 4 6 8 8 8 8 8 9 10 11 12 14 15 15 14 13 11 10 10 10 9 8 9 9 8 7 7 6 6 5 4 4 3 2 1 1 1 2 3 4 5 5
5 5 4 6 9 9 7 8 9 11 12 13 13 13 14 15 15 13 11 10 10 9 8 8 8 8 8 7 6 5 4 3 3 2 1 1 0 1 1 2 4 5 6 7
5 4 3 4 10 7 10 10 11 13 13 14 14 14 13 13 14 13 11 10 10 9 8 8 8 8 7 6 5 4 3 2 1 1 1 1 1 1 1 1 4 6 5 4
Wind_Direction
198 230 227 218 227 265 263 245 213 178 154 226 193 153 78 55 83 129 153 158 162 167 161 170 181 186 187 189 192 200 203 201 202 205 208 209 213 214 213 215 212 211 214 213
212 232 243 240 229 238 237 236 220 193 157 235 165 127 88 61 58 46 49 72 99 119 126 146 172 184 189 191 196 199 202 200 202 205 207 212 216 216 212 207 200 203 207 211
245 260 196 222 213 222 227 240 233 217 201 200 190 158 120 88 71 62 56 55 59 62 75 99 131 166 186 195 202 204 204 203 203 201 198 200 204 211 205 200 195 193 191 196
249 243 221 229 224 228 228 225 243 237 235 193 215 184 130 114 86 66 58 56 57 57 56 58 72 107 165 197 208 208 204 203 200 197 201 199 204 209 207 196 179 161 155 166
229 219 224 231 231 226 244 228 233 233 238 230 212 221 131 136 101 76 62 57 57 54 52 50 45 47 45 47 163 185 187 199 199 200 203 206 215 217 187 166 154 137 126 126
258 232 247 250 238 228 234 221 219 231 227 219 207 221 130 107 100 95 77 64 58 56 53 49 46 44 44 43 51 73 102 112 180 196 206 210 216 203 168 166 155 136 115 99
225 219 217 233 226 200 218 221 205 200 208 194 168 193 99 88 85 94 89 77 64 56 51 45 42 41 41 39 38 48 68 69 68 97 129 169 183 173 164 157 142 124 110 100
242 205 194 211 232 210 209 229 239 223 199 162 169 140 108 105 99 95 90 82 70 60 55 49 44 42 42 41 41 45 54 56 55 63 71 70 83 94 95 99 100 96 93 89
308 100 139 195 229 243 205 226 258 272 227 184 137 118 124 131 117 106 97 85 73 65 59 55 51 47 45 45 46 49 57 57 55 58 64 64 65 75 80 81 83 82 81 81
308 286 151 162 204 217 267 233 218 240 219 195 160 166 156 156 133 117 103 93 83 72 64 58 55 53 51 50 52 52 55 58 57 59 62 67 67 70 74 76 77 77 76 76
287 272 183 188 215 197 202 208 235 244 271 246 179 131 103 144 133 122 106 96 88 78 69 64 61 60 60 57 56 57 58 60 59 61 65 67 68 69 71 73 73 74 74 74
292 279 200 134 89 313 260 259 241 245 219 264 261 100 86 120 118 114 105 96 87 80 75 72 68 64 62 60 59 59 60 63 64 66 68 69 70 70 72 72 72 75 76 75
311 266 210 165 167 167 163 220 267 272 259 245 242 118 105 111 108 105 104 99 92 85 79 73 69 65 63 62 63 64 65 68 70 71 72 71 70 71 73 74 75 75 77 76
283 307 332 37 70 69 108 71 292 268 255 245 211 126 133 123 116 111 107 103 97 90 85 79 76 73 70 67 67 68 67 70 75 76 76 75 74 74 75 75 76 76 77 77
278 52 76 73 80 83 70 54 37 10 346 326 102 127 132 127 120 116 112 109 103 97 91 87 84 81 79 77 75 75 76 75 77 79 79 80 81 80 79 78 79 80 81 83
352 128 125 110 108 102 77 56 53 42 32 73 105 93 100 111 114 116 115 112 107 102 99 94 88 84 83 83 82 82 82 82 83 84 84 86 86 85 85 86 88 89 90 91
136 202 227 150 160 194 83 37 43 67 50 48 76 104 117 112 114 117 119 116 112 109 105 100 95 90 89 87 88 88 89 89 88 90 92 93 94 95 98 101 101 100 98 94
325 257 266 177 204 211 85 66 56 75 59 60 90 103 103 101 93 92 107 114 114 112 108 103 101 98 94 93 93 93 92 92 93 93 93 95 99 100 102 102 98 96 92 88
355 297 288 267 182 118 132 103 2 24 84 86 105 107 110 114 101 84 92 104 109 109 107 104 104 104 103 101 104 104 100 99 97 95 96 99 102 104 103 99 95 90 86 80
97 281 273 277 277 99 89 61 356 227 129 126 128 132 138 147 125 112 110 108 108 108 108 109 109 107 106 106 110 108 105 102 99 101 102 103 102 98 94 90 85 83 75 61
191 130 9 344 63 87 57 13 249 265 104 137 143 146 148 120 103 120 119 111 110 109 110 111 110 106 107 112 112 108 105 101 103 108 106 101 99 98 95 88 73 54 37 32
336 4 67 294 297 86 49 329 20 74 111 129 131 127 113 107 112 119 119 118 118 117 116 117 113 108 109 118 117 110 103 107 110 109 107 106 102 97 95 83 56 16 346 334
10 15 28 28 57 80 71 74 88 115 121 125 126 125 125 124 125 124 122 124 125 125 125 126 122 119 120 122 118 112 113 117 114 109 108 112 113 93 53 3 353 335 337 345
123 129 124 117 113 112 105 106 111 116 119 124 126 131 131 129 129 129 130 131 130 129 129 130 129 125 121 119 113 114 118 120 120 114 119 137 152 161 67 335 346 357 1 1
126 166 150 125 130 132 125 120 119 116 118 120 123 128 131 133 135 135 133 131 129 129 129 131 127 125 125 126 122 120 119 133 129 129 145 195 282 33 8 22 24 5 38 27
166 177 197 146 158 157 139 134 132 130 129 129 130 130 134 135 134 133 129 128 128 129 130 128 126 126 127 131 126 120 124 140 167 184 207 268 297 360 330 75 115 71 51 80